{"data":{"norad_id":64052,"intl_designator":"2025-103E","name":"TIANYI E","alt_names":[],"object_type":"PAYLOAD","status":"ACTIVE","operator":null,"country":"PRC","launch_date":"2025-05-17","launch_site_code":"JSC","launch_vehicle":null,"mission":null,"orbit_class":"UNKNOWN","rcs_meters":null,"size_class":null,"mass_kg":null,"dimensions":null,"purposes":[],"wikipedia_slug":null,"has_3d_model":false,"image_url":null,"decayed_at":null,"tle_current":{"epoch":"2026-09-21T22:41:29.769216Z","epoch_age_seconds":70583,"freshness":"FRESH","line1":"1 64052U 25103E   26264.94548344  .00008404  00000+0  33323-3 0  9991","line2":"2 64052  97.3662 335.8727 0003123 162.4455 197.6891 15.25625306 74853","mean_motion":15.25625306,"eccentricity":0.0003123,"inclination_deg":97.3662,"raan_deg":335.8727,"arg_perigee_deg":162.4455,"mean_anomaly_deg":197.6891,"bstar":0.00033323,"rev_number":7485,"period_min":94.387527156029,"perigee_km":486.76382321983,"apogee_km":491.05297977761,"semimajor_km":6867.0454014987,"source":"CELESTRAK","updated_at":"2026-09-22T09:00:29.523396Z"}}}